OPS 4682 DEB, 18538

Orbit data source: Space-Track

OPS 4682 DEB, 18538 is space debris in LEO originally from a launch on Sat, 03 Apr 1965 UTC launched from the Air Force Western Test Range (AFWTR). Debris objects in space refer to the collection of defunct objects orbiting the Earth. Examples of debris include non-operational satellites, rocket bodies, and fragments generated from explosions, collisions, or faulty payload assembly.

Loading next visibility...
Identifier
18538, 1965-027AF
Orbit
LEO
Country
Flag of USUS
Related business
Manufacturer
Unknown
Mission
Spacecraft
Bus & Motor
Unknown
Mass
Unknown
Launch date (UTC)
1965-04-03 (61 years ago)
Launch vehicle
Unknown
Launch site
Air Force Western Test Range (AFWTR)
Object type
Payload
Rocket body
Debris
Shape & HBR
Unknown shape, 0.1 m
Radar Cross Section
Small (<0.1 m²)

Expand to show TLE details & history
Last TLE update: 2 weeks ago

TLE from 2 weeks ago
0 OPS 4682 DEB
1 18538U 65027AF  25284.20329064  .00000391  00000-0  13598-2 0  9993
2 18538  90.2421 358.2841 0031177 100.9240 316.7463 12.95221819463431
Epoch: 2025-10-11T04:52Z
TLE epoch observation values (Epoch: 2025-10-11T04:52:44.311Z)
Latitude
57.51396°
Longitude
-95.317°
Altitude
1,273.23 km
Speed
7.233 km/s
True Right ascension
23h 51m 37s
True Declination
57° 22' 07"
Sunlit
Object was in full shadow at epoch
Visualization orbit readout
Latitude
Unknown
Longitude
Unknown
Altitude
Unknown
Speed
Unknown
Apparent Right ascension
Unknown
Apparent Declination
Unknown
Sunlit
N/A
Visualization observer readout
Local Sidereal Time
12:26:56
Azimuth
Unknown
Elevation
Unknown
Doppler factor
Unknown
Orbital elements
Apogee altitude
1,301.869 km
Perigee altitude
1,254.13 km
Semi-major axis
7,656.136 km
Eccentricity
0.00312
Inclination
90.2421°
RAAN
358.2841°
Arg. of periapsis
100.924°
True anomaly
316.5008°
Mean anomaly
316.7463°
Eccentric anomaly
316.62362°
Mean motion
3.23988 °/min
Orbital period
111.12 mins
BSTAR
0.0013598
Loading maneuver chart data...
Computing Atmospheric mass density...
Loading historical data...
Loading historical data...
Loading historical data...
Loading historical data...
Loading historical data...
Loading historical data...
Loading historical data...

Documentation

Showing up to 5 results
|